Regional Weather Roundup
Issued by NWS

Home | Current Version | Previous Version | Text Only | Print | Product List | Glossary Off
Versions: 1 2 3 4 5 6 7 8 9 10 11 12 13 14 15 16 17 18 19 20 21 22 23 24 25 26 27 28 29 30 31 32 33 34 35 36 37 38 39 40 41 42 43 44 45 46 47 48 49 50

000
ASUS45 KCYS 191410
RWRWY

WYOMING REGIONAL WEATHER ROUNDUP
NATIONAL WEATHER SERVICE CHEYENNE WY
800 AM MDT THU OCT 19 2017

NOTE:  "FAIR" INDICATES FEW OR NO CLOUDS BELOW 12,000 FEET
WITH NO SIGNIFICANT WEATHER AND/OR OBSTRUCTIONS TO VISIBILITY.

WYZ001-191500-
YELLOWSTONE NATIONAL PARK

CITY           SKY/WX    TMP DP  RH WIND       PRES   REMARKS
LK YELLOWSTONE   N/A     25  22  88 CALM      30.13R
W YELLOWSTONE  NOT AVBL

$$
WYZ002>013-054>058-071-098>099-191500-
NORTHERN WYOMING

CITY           SKY/WX    TMP DP  RH WIND       PRES   REMARKS
JACKSON        FAIR      24  21  88 N7        30.11S WCI  16
CODY           NOT AVBL
GREYBULL       FAIR      35  24  64 CALM      29.92S
WORLAND        FAIR      37  27  67 S9        29.93S WCI  30
SHERIDAN       FAIR      39  30  70 CALM      29.84F
BUFFALO        FAIR      50  20  30 SW8       29.91F
GILLETTE       FAIR      50  22  33 S5        29.90S
HULETT         FAIR      46  23  39 SW7       29.91S
NEWCASTLE      FAIR      43  23  45 NE5       29.95S

$$
WYZ014>020-022>026-101>103-191500-
CENTRAL WYOMING

CITY           SKY/WX    TMP DP  RH WIND       PRES   REMARKS
BIG PINEY      FAIR      15  10  80 N5        30.15S WCI   8
PINEDALE       FAIR      18  16  93 W6        30.16S WCI   9
DUBOIS         FAIR      34  18  51 W14       30.08S WCI  24
LANDER         FAIR      43  19  38 CALM      30.01S
RIVERTON       FAIR      39  22  50 W6        30.02S WCI  35
CASPER         FAIR      43  16  33 NW9       30.01F
DOUGLAS        FAIR      32  22  66 SE3       30.00S

$$
WYZ021-027>030-104>119-191500-
SOUTHERN WYOMING

CITY           SKY/WX    TMP DP  RH WIND       PRES   REMARKS
EVANSTON       FAIR      47  11  23 SE3       30.12S
FORT BRIDGER   FAIR      42  11  27 CALM      30.14F HAZE
ROCK SPRINGS   FAIR      30  11  45 S6        30.12F WCI  24
DIXON          FAIR      27  17  66 CALM      30.17S
RAWLINS        FAIR      30  15  53 CALM      30.13S
SARATOGA       FAIR      43  14  31 S12       30.14F
LARAMIE        FAIR      33  17  51 S9        30.15F WCI  25
CHEYENNE       FAIR      44  18  35 W13       30.09S
TORRINGTON     FAIR      36  29  75 CALM      30.00S
PINE BLUFFS    FAIR      32  27  80 MISG      30.07S

$$



USA.gov is the U.S. government's official web portal to all federal, state and local government web resources and services.